Domenica 29 Novembre 2020

 
Calliano - Provincia di Trento

189 mslm

45° 55' 59'' N 11° 05' 53'' E

Pagine realizzate e gestite da Andrea Pernecher

 

Tutti gli orari sono riferiti all'ora solare (GMT+1h)

>stazione meteo :: i dati del giorno  

 Dati relativi a DOMENICA 29 NOVEMBRE 2020 ORE 16.44
 

 TEMPERATURA

5,1 °C

 

 ESCURS. TERMICA 8,0 °C

 

 

 TEMPERATURA MIN

0,9 °C

alle 04:30

 

 TEMPERATURA MAX 8,9 °C

alle 14:44

 

 TEMP.MEDIA INTEG.

3.7 °C

       
 

 PRESSIONE

1.016 mbar

 

 UMIDITA' 47 %

 

 PIOGGIA

0,0 mm

 

 INTENS. PIOGGIA 0,0 mm/h

 

 VENTO MAX

5,3 m/s

SSE

 

 DEW POINT

-5,3 °C

 
Immagini WebCam
ORE 8.00 ORE 12.00 ORE 16.00

> visualizza webcam 24 ore

 

 Dettaglio rilevazioni di Domenica 29 Novembre 2020 (ogni 15 minuti)
Ora Temperatura °C Umidità R. % Pressione mbar Vento m/s Dew Point °C Pioggia totale caduta mm Intensità della pioggia mm/h
  TEMPERATURA UMIDITA' PRESSIONE VENTO DEW POINT PIOGGIA INTENS. PIOGGIA
16:30 5,5 45 1.016 1,4 S -5,5 0,0 0,0
16:15 6,1 44 1.016 0,0 SSE -5,2 0,0 0,0
16:00 6,6 42 1.016 1,6 SSE -5,4 0,0 0,0
15:45 7,4 40 1.016 1,4 SSE -5,3 0,0 0,0
15:30 8,3 39 1.016 0,0 S -4,8 0,0 0,0
15:15 8,8 38 1.016 1,4 E -4,7 0,0 0,0
15:00 8,9 38 1.016 1,2 NE -4,6 0,0 0,0
14:45 8,9 39 1.016 2,2 ENE -4,3 0,0 0,0
14:30 8,8 39 1.015 1,6 ENE -4,4 0,0 0,0
14:15 8,8 39 1.016 1,4 E -4,4 0,0 0,0
14:00 8,7 39 1.016 0,0 E -4,5 0,0 0,0
13:45 8,5 39 1.016 2,0 ESE -4,7 0,0 0,0
13:30 8,4 39 1.016 2,8 SE -4,7 0,0 0,0
13:15 8,1 40 1.016 3,6 ENE -4,7 0,0 0,0
13:00 7,8 41 1.016 2,2 ENE -4,6 0,0 0,0
12:45 7,4 42 1.017 3,6 E -4,7 0,0 0,0
12:30 7,1 43 1.017 1,8 ESE -4,6 0,0 0,0
12:15 6,7 45 1.017 2,6 E -4,4 0,0 0,0
12:00 6,3 46 1.017 3,6 SE -4,5 0,0 0,0
11:45 5,9 48 1.017 2,8 ESE -4,3 0,0 0,0
11:30 5,4 49 1.017 2,8 E -4,5 0,0 0,0
11:15 4,8 50 1.018 2,6 ESE -4,7 0,0 0,0
11:00 4,3 51 1.018 3,6 E -4,9 0,0 0,0
10:45 3,4 56 1.018 4,3 ESE -4,5 0,0 0,0
10:30 3,0 56 1.018 2,8 ESE -4,9 0,0 0,0
10:15 2,8 57 1.018 2,8 E -4,9 0,0 0,0
10:00 2,7 58 1.018 2,6 E -4,7 0,0 0,0
09:45 2,6 59 1.017 2,8 E -4,6 0,0 0,0
09:30 2,4 60 1.018 2,4 ESE -4,6 0,0 0,0
09:15 2,1 63 1.017 2,6 E -4,2 0,0 0,0
09:00 1,9 64 1.017 1,2 E -4,2 0,0 0,0
08:45 1,9 65 1.017 2,6 ENE -4,0 0,0 0,0
08:30 1,7 66 1.017 2,8 E -4,0 0,0 0,0
08:15 1,5 67 1.017 3,4 ESE -4,0 0,0 0,0
08:00 1,4 68 1.017 2,6 ESE -3,9 0,0 0,0
07:45 1,4 69 1.017 2,4 ESE -3,7 0,0 0,0
07:30 1,3 68 1.017 2,4 ESE -3,9 0,0 0,0
07:15 1,1 67 1.017 2,4 SE -4,3 0,0 0,0
07:00 1,4 66 1.017 1,2 ESE -4,3 0,0 0,0
06:45 1,6 66 1.017 1,8 ESE -4,1 0,0 0,0
06:30 1,7 68 1.017 1,8 E -3,6 0,0 0,0
06:15 1,4 67 1.017 1,8 SE -4,1 0,0 0,0
06:00 1,6 68 1.017 1,4 E -3,7 0,0 0,0
05:45 1,5 71 1.017 2,6 ENE -3,2 0,0 0,0
05:30 1,2 71 1.017 2,4 ENE -3,5 0,0 0,0
05:15 1,1 70 1.017 2,6 ENE -3,8 0,0 0,0
05:00 1,2 71 1.017 1,6 SE -3,5 0,0 0,0
04:45 1,0 70 1.017 2,4 E -3,9 0,0 0,0
04:30 0,9 70 1.017 1,8 ENE -3,9 0,0 0,0
04:15 1,1 70 1.017 1,8 NE -3,8 0,0 0,0
04:00 1,3 69 1.017 3,6 E -3,8 0,0 0,0
03:45 1,3 69 1.017 4,1 E -3,8 0,0 0,0
03:30 1,3 68 1.017 2,4 SE -3,9 0,0 0,0
03:15 1,5 68 1.017 2,2 ESE -3,8 0,0 0,0
03:00 1,6 67 1.017 2,6 ENE -3,9 0,0 0,0
02:45 1,9 69 1.017 1,4 NE -3,2 0,0 0,0
02:30 1,5 68 1.017 1,8 ESE -3,8 0,0 0,0
02:15 1,4 67 1.017 1,8 E -4,1 0,0 0,0
02:00 1,7 66 1.017 2,6 ESE -4,0 0,0 0,0
01:45 1,8 65 1.017 1,8 E -4,1 0,0 0,0
01:30 2,0 62 1.017 1,2 ESE -4,5 0,0 0,0
01:15 2,3 62 1.018 2,4 ESE -4,2 0,0 0,0
01:00 2,5 63 1.018 2,2 E -3,8 0,0 0,0
00:45 2,3 63 1.018 2,4 ENE -4,0 0,0 0,0
00:30 2,1 62 1.018 3,7 ENE -4,4 0,0 0,0
00:15 2,5 61 1.018 2,2 E -4,3 0,0 0,0
00:00 2,7 62 1.018 1,6 NNE -3,8 0,0 0,0

 

 

Stampa paginastampa    torna in cima

 2002-2020 osservatoriocalliano.it